AA9VI-10 Weather Reports


Display with metric or nautical units.
time (UTC)temp
F
wind
direction
speed
MPH
gust
MPH
rain 1hr
in
rain 24hr
in
rain mn
in
humidity
%
barometer
mb
20260508174017 65 225 1.0 5.0 0.00 0.00 0.00 33 1009.0
20260508173017 64 203 3.0 5.0 0.00 0.00 0.00 36 1009.2
20260508172017 64 113 2.0 6.0 0.00 0.00 0.00 38 1009.4
20260508171017 63 113 1.0 2.0 0.00 0.00 0.00 42 1009.6
20260508170017 62 135 2.0 5.0 0.00 0.00 0.00 39 1009.8
20260508165017 62 248 1.0 3.0 0.00 0.00 0.00 41 1009.9
20260508164017 62 135 2.0 4.0 0.00 0.00 0.00 42 1010.1
20260508163017 61 0 2.0 6.0 0.00 0.00 0.00 44 1010.2
20260508162017 61 0 1.0 4.0 0.00 0.00 0.00 44 1010.5
20260508161017 60 0 2.0 4.0 0.00 0.00 0.00 43 1010.4
20260508160017 60 0 2.0 4.0 0.00 0.00 0.00 41 1010.5
20260508155017 60 0 2.0 4.0 0.00 0.00 0.00 37 1010.6
20260508154017 59 158 1.0 6.0 0.00 0.00 0.00 35 1010.8
20260508153017 58 90 1.0 3.0 0.00 0.00 0.00 35 1010.8
20260508152017 58 158 1.0 4.0 0.00 0.00 0.00 41 1010.7
20260508151017 57 158 1.0 3.0 0.00 0.00 0.00 54 1010.9
20260508150017 55 225 1.0 4.0 0.00 0.00 0.00 60 1010.9
20260508145017 55 180 1.0 3.0 0.00 0.00 0.00 64 1011.0
20260508144017 54 180 1.0 3.0 0.00 0.00 0.00 66 1011.1
20260508143017 53 158 1.0 3.0 0.00 0.00 0.00 68 1011.1
20260508142017 53 0.0 2.0 0.00 0.00 0.00 70 1011.0
20260508141017 52 135 1.0 2.0 0.00 0.00 0.00 72 1011.0
20260508140017 51 0.0 3.0 0.00 0.00 0.00 74 1011.1
20260508135016 50 45 1.0 2.0 0.00 0.00 0.00 78 1011.0
20260508134017 49 113 1.0 2.0 0.00 0.00 0.00 80 1011.0
20260508133017 48 0.0 1.0 0.00 0.00 0.00 83 1011.0
20260508132017 47 90 1.0 2.0 0.00 0.00 0.00 85 1011.0
20260508131017 46 0.0 1.0 0.00 0.00 0.00 87 1011.2
20260508130017 45 0.0 1.0 0.00 0.00 0.00 89 1011.1
20260508125017 45 0.0 0.0 0.00 0.00 0.00 91 1011.1
20260508124017 43 0.0 0.0 0.00 0.00 0.00 91 1011.2
20260508123017 42 0.0 0.0 0.00 0.00 0.00 90 1011.3
20260508122017 42 0.0 0.0 0.00 0.00 0.00 90 1011.1
20260508121017 41 0.0 1.0 0.00 0.00 0.00 91 1011.2
20260508120017 40 0.0 0.0 0.00 0.00 0.00 91 1011.1
20260508115017 39 0.0 0.0 0.00 0.00 0.00 90 1011.1
20260508114016 38 0.0 0.0 0.00 0.00 0.00 90 1010.9
20260508113017 37 0.0 0.0 0.00 0.00 0.00 89 1010.8
20260508112017 37 0.0 0.0 0.00 0.00 0.00 89 1010.7
20260508111017 37 0.0 0.0 0.00 0.00 0.00 89 1010.7
20260508110017 36 0.0 0.0 0.00 0.00 0.00 89 1010.6
20260508105018 36 0.0 0.0 0.00 0.00 0.00 89 1010.6
20260508104016 36 0.0 0.0 0.00 0.00 0.00 88 1010.6
20260508103017 36 0.0 0.0 0.00 0.00 0.00 88 1010.5
20260508102017 37 0.0 0.0 0.00 0.00 0.00 88 1010.7
20260508101017 37 0.0 0.0 0.00 0.00 0.00 88 1010.6
20260508100017 37 0.0 0.0 0.00 0.00 0.00 88 1010.6
20260508095017 37 0.0 0.0 0.00 0.00 0.00 88 1010.7
20260508094017 37 0.0 0.0 0.00 0.00 0.00 88 1010.9
20260508093017 37 0.0 0.0 0.00 0.00 0.00 88 1010.8
20260508092017 38 0.0 0.0 0.00 0.00 0.00 88 1010.8
20260508091017 38 0.0 0.0 0.00 0.00 0.00 88 1011.1
20260508090017 38 0.0 0.0 0.00 0.00 0.00 88 1011.0
20260508085017 39 0.0 0.0 0.00 0.00 0.00 88 1011.1
20260508084017 39 0.0 0.0 0.00 0.00 0.00 88 1011.3
20260508083017 39 0.0 0.0 0.00 0.00 0.00 88 1011.3
20260508082017 40 0.0 0.0 0.00 0.00 0.00 88 1011.2
20260508081017 40 0.0 0.0 0.00 0.00 0.00 88 1011.2
20260508080017 40 0.0 0.0 0.00 0.00 0.00 88 1011.3
20260508075017 40 0.0 0.0 0.00 0.00 0.00 88 1011.4
20260508074016 40 0.0 0.0 0.00 0.00 0.00 88 1011.5
20260508072016 40 0.0 0.0 0.00 0.00 0.00 88 1011.7
20260508071017 40 0.0 0.0 0.00 0.00 0.00 88 1011.6
20260508070017 41 0.0 0.0 0.00 0.00 0.00 87 1011.6
20260508065017 41 0.0 0.0 0.00 0.00 0.00 87 1011.7
20260508064017 41 0.0 0.0 0.00 0.00 0.00 87 1011.8
20260508063017 41 0.0 0.0 0.00 0.00 0.00 87 1011.7
20260508062017 41 0.0 0.0 0.00 0.00 0.00 87 1011.7
20260508061017 40 0.0 0.0 0.00 0.00 0.00 87 1011.6
20260508060017 40 0.0 0.0 0.00 0.00 0.00 87 1011.6
20260508055017 41 0.0 0.0 0.00 0.00 0.00 86 1011.6
20260508054017 41 0.0 0.0 0.00 0.00 0.00 86 1011.5
20260508053017 41 0.0 0.0 0.00 0.00 0.00 86 1011.6
20260508052016 41 0.0 0.0 0.00 0.00 0.00 86 1011.7
20260508051017 41 0.0 0.0 0.00 0.00 0.00 85 1011.5
20260508050017 42 0.0 0.0 0.00 0.00 0.00 85 1011.3
20260508045017 42 0.0 0.0 0.00 0.00 0.00 85 1011.1
20260508044018 42 0.0 1.0 0.00 0.00 0.00 85 1011.0
20260508043017 42 0.0 0.0 0.00 0.00 0.00 84 1011.1
20260508042017 43 0.0 0.0 0.00 0.00 0.00 84 1011.1
20260508041017 43 0.0 0.0 0.00 0.00 0.00 84 1011.0
20260508040017 43 0.0 0.0 0.00 0.00 0.00 83 1010.9
20260508035016 43 0.0 1.0 0.00 0.00 0.00 83 1010.8
20260508034017 44 0.0 1.0 0.00 0.00 0.00 82 1010.8
20260508033017 44 0.0 0.0 0.00 0.00 0.00 81 1010.7
20260508032018 45 0.0 0.0 0.00 0.00 0.00 80 1010.7
20260508031018 45 0.0 2.0 0.00 0.00 0.00 80 1010.6
20260508030017 45 0.0 1.0 0.00 0.00 0.00 80 1010.5
20260508025018 45 0.0 1.0 0.00 0.00 0.00 78 1010.5
20260508024017 46 0.0 0.0 0.00 0.00 0.00 77 1010.4
20260508023018 47 0.0 0.0 0.00 0.00 0.00 76 1010.1
20260508022017 47 0.0 0.0 0.00 0.00 0.00 76 1010.1
20260508021018 48 0.0 0.0 0.00 0.00 0.00 75 1010.0
20260508020018 48 0.0 0.0 0.00 0.00 0.00 73 1009.9
20260508015017 49 0.0 0.0 0.00 0.00 0.00 72 1009.8
20260508014017 50 0.0 0.0 0.00 0.00 0.00 70 1009.6
20260508013017 50 0.0 0.0 0.00 0.00 0.00 69 1009.5
20260508012018 51 0.0 0.0 0.00 0.00 0.00 67 1009.5
20260508011017 52 0.0 1.0 0.00 0.00 0.00 66 1009.4
20260508010017 52 0.0 1.0 0.00 0.00 0.00 64 1009.3
20260508005022 53 0 1.0 3.0 0.00 0.00 0.00 63 1009.2
20260508004018 54 0.0 2.0 0.00 0.00 0.00 61 1009.2
20260508003017 55 0 1.0 3.0 0.00 0.00 0.00 59 1009.2
20260508002017 56 0 1.0 2.0 0.00 0.00 0.00 57 1009.3
20260508001018 58 0.0 1.0 0.00 0.00 0.00 53 1009.1
20260508000017 58 0 1.0 2.0 0.00 0.00 0.00 45 1009.0
20260507235017 58 0 1.0 4.0 0.00 0.00 0.00 45 1008.9
20260507234017 58 0 1.0 7.0 0.00 0.00 0.00 46 1008.8
20260507233017 59 0 1.0 4.0 0.00 0.00 0.00 46 1008.9
20260507232016 59 225 2.0 7.0 0.00 0.00 0.00 46 1009.0
20260507231017 59 248 3.0 9.0 0.00 0.00 0.00 45 1009.0
20260507230018 60 225 2.0 7.0 0.00 0.00 0.00 46 1009.1
20260507225017 59 225 2.0 6.0 0.00 0.00 0.00 47 1009.1
20260507224017 58 0 2.0 4.0 0.00 0.00 0.00 50 1009.1
20260507223017 57 0 2.0 11.0 0.00 0.00 0.00 49 1009.3
20260507222017 58 270 2.0 6.0 0.00 0.00 0.00 50 1009.5
20260507221017 57 180 2.0 8.0 0.00 0.00 0.00 53 1009.6
20260507220017 55 0 2.0 8.0 0.00 0.00 0.00 56 1009.6
20260507215017 52 225 2.0 5.0 0.00 0.00 0.00 60 1009.6
20260507214017 51 270 1.0 3.0 0.00 0.00 0.00 62 1010.1
20260507213017 51 68 1.0 7.0 0.00 0.00 0.00 62 1010.1
20260507212017 52 113 2.0 5.0 0.00 0.00 0.00 59 1010.3
20260507211017 53 0 1.0 3.0 0.00 0.00 0.00 57 1010.4
20260507210017 55 0 1.0 3.0 0.00 0.00 0.00 60 1010.3
20260507205017 58 0 4.0 14.0 0.00 0.00 0.00 47 1010.1
20260507204017 59 0 4.0 10.0 0.00 0.00 0.00 44 1009.7
20260507203017 61 248 4.0 9.0 0.00 0.00 0.00 38 1009.6
20260507202017 60 180 4.0 14.0 0.00 0.00 0.00 43 1009.7
20260507201017 60 180 5.0 13.0 0.00 0.00 0.00 42 1009.7
20260507200017 60 0 3.0 15.0 0.00 0.00 0.00 47 1009.8
20260507195017 59 0 5.0 14.0 0.00 0.00 0.00 45 1010.1
20260507194017 59 0 5.0 10.0 0.00 0.00 0.00 44 1010.3
20260507193018 59 0 5.0 10.0 0.00 0.00 0.00 45 1010.5
20260507192017 58 0 6.0 16.0 0.00 0.00 0.00 44 1010.6
20260507191018 59 0 5.0 16.0 0.00 0.00 0.00 43 1010.7
20260507190017 58 0 5.0 12.0 0.00 0.00 0.00 43 1010.7
20260507185017 56 225 3.0 10.0 0.00 0.00 0.00 43 1010.8
20260507184017 56 0.0 1.0 0.00 0.00 0.00 43 1011.1
20260507183017 56 0 4.0 11.0 0.00 0.00 0.00 39 1011.2
20260507182017 57 0 3.0 9.0 0.00 0.00 0.00 38 1011.2
20260507181017 57 0 3.0 11.0 0.00 0.00 0.00 39 1011.4
20260507180017 57 0 3.0 9.0 0.00 0.00 0.00 38 1011.6
20260507175017 58 0 4.0 9.0 0.00 0.00 0.00 37 1011.8